DW9987 Weather Reports


Display with metric or nautical units.
time (UTC)temp
F
wind
direction
speed
MPH
gust
MPH
rain 1hr
in
rain 24hr
in
rain mn
in
humidity
%
barometer
mb
20260508041517 52 294 0.0 1.0 0.00 0.00 0.00 73 1011.8
20260508040017 53 355 0.0 2.0 0.00 0.00 0.00 72 1011.6
20260508034519 53 360 3.0 5.0 0.00 0.00 0.00 71 1011.6
20260508033027 54 252 2.0 6.0 0.00 0.00 0.00 69 1011.3
20260508031515 54 216 2.0 7.0 0.00 0.00 0.00 68 1011.3
20260508030015 55 152 1.0 7.0 0.00 0.00 0.00 67 1011.2
20260508024514 55 203 3.0 6.0 0.00 0.00 0.00 65 1011.1
20260508023014 55 208 1.0 5.0 0.00 0.00 0.00 60 1011.0
20260508021514 54 201 1.0 4.0 0.00 0.00 0.00 58 1011.0
20260508020015 53 191 2.0 4.0 0.00 0.00 0.00 62 1010.8
20260508014513 51 190 0.0 2.0 0.00 0.00 0.00 66 1010.6
20260508013014 51 190 0.0 0.0 0.00 0.00 0.00 70 1010.4
20260508011512 53 190 0.0 4.0 0.00 0.00 0.00 66 1010.4
20260508010024 54 12 0.0 0.0 0.00 0.00 0.00 66 1010.3
20260508004519 55 12 0.0 0.0 0.00 0.00 0.00 63 1010.2
20260508003011 56 12 0.0 0.0 0.00 0.00 0.00 61 1010.2
20260508001510 57 12 0.0 0.0 0.00 0.00 0.00 57 1010.2
20260508000009 58 12 0.0 0.0 0.00 0.00 0.00 57 1010.1
20260507234509 59 12 0.0 5.0 0.00 0.00 0.00 49 1010.2
20260507233008 59 355 1.0 6.0 0.00 0.00 0.00 51 1010.2
20260507231508 58 348 4.0 10.0 0.00 0.00 0.00 50 1010.4
20260507230008 59 348 4.0 11.0 0.00 0.00 0.00 51 1010.6
20260507224512 60 355 5.0 12.0 0.00 0.00 0.00 49 1010.5
20260507223006 62 290 4.0 9.0 0.00 0.00 0.00 40 1010.3
20260507221508 63 225 4.0 9.0 0.00 0.00 0.00 40 1010.2
20260507220005 63 182 3.0 13.0 0.00 0.00 0.00 45 1010.2
20260507214501 62 63 3.0 14.0 0.00 0.00 0.00 47 1010.2
20260507213059 62 179 4.0 21.0 0.00 0.00 0.00 48 1010.4
20260507211557 61 203 4.0 16.0 0.00 0.00 0.00 51 1010.5
20260507204553 60 94 3.0 9.0 0.00 0.00 0.00 51 1010.8
20260507203057 60 202 3.0 10.0 0.00 0.00 0.00 53 1011.1
20260507201548 59 271 5.0 12.0 0.00 0.00 0.00 56 1011.3
20260507200045 58 270 4.0 15.0 0.00 0.00 0.00 56 1011.5
20260507194541 57 244 5.0 13.0 0.00 0.00 0.00 58 1012.1
20260507193040 57 225 7.0 16.0 0.00 0.00 0.00 58 1012.4
20260507191538 57 224 4.0 18.0 0.00 0.00 0.00 58 1012.7
20260507190035 56 333 4.0 20.0 0.00 0.00 0.00 59 1012.9
20260507184534 56 51 6.0 22.0 0.00 0.00 0.00 57 1013.1
20260507183043 56 154 6.0 19.0 0.00 0.00 0.00 57 1013.3
20260507181534 56 194 8.0 17.0 0.00 0.00 0.00 54 1013.3
20260507180033 57 161 7.0 15.0 0.00 0.00 0.00 49 1013.4
20260507174528 58 250 5.0 12.0 0.00 0.00 0.00 46 1013.4
20260507173025 57 190 5.0 19.0 0.00 0.00 0.00 46 1013.6
20260507171524 57 217 5.0 17.0 0.00 0.00 0.00 44 1013.8
20260507170023 57 173 6.0 12.0 0.00 0.00 0.00 41 1014.1
20260507164519 57 215 4.0 9.0 0.00 0.00 0.00 42 1014.1
20260507163017 56 196 4.0 10.0 0.00 0.00 0.00 43 1014.2
20260507161513 56 162 2.0 11.0 0.00 0.00 0.00 44 1014.6
20260507160032 56 191 3.0 11.0 0.00 0.00 0.00 44 1014.7
20260507154513 55 198 4.0 7.0 0.00 0.00 0.00 46 1015.0
20260507153006 54 217 2.0 8.0 0.00 0.00 0.00 49 1015.2
20260507151504 53 187 3.0 9.0 0.00 0.00 0.00 48 1015.3
20260507150003 53 182 2.0 9.0 0.00 0.00 0.00 49 1015.4
20260507144557 52 192 2.0 7.0 0.00 0.00 0.00 50 1015.6
20260507143055 51 228 0.0 5.0 0.00 0.00 0.00 54 1016.0
20260507141551 50 209 1.0 4.0 0.00 0.00 0.00 54 1016.2
20260507140100 48 184 2.0 7.0 0.00 0.00 0.00 57 1016.4
20260507134544 47 212 2.0 5.0 0.00 0.00 0.00 58 1016.2
20260507133042 46 192 2.0 6.0 0.00 0.00 0.00 58 1016.5
20260507131538 43 320 0.0 2.0 0.00 0.00 0.00 70 1016.6
20260507130038 40 360 0.0 1.0 0.00 0.00 0.00 81 1016.7
20260507124545 38 5 0.0 0.0 0.00 0.00 0.00 87 1016.7
20260507123029 36 5 0.0 0.0 0.00 0.00 0.00 89 1016.7
20260507121526 34 5 0.0 0.0 0.00 0.00 0.00 88 1016.3
20260507120026 33 5 0.0 0.0 0.00 0.00 0.00 87 1016.2
20260507114528 33 5 0.0 0.0 0.00 0.00 0.00 86 1016.2
20260507113024 33 5 0.0 0.0 0.00 0.00 0.00 85 1016.1
20260507111523 33 5 0.0 0.0 0.00 0.00 0.00 84 1016.1
20260507110029 33 5 0.0 0.0 0.00 0.00 0.00 83 1016.1
20260507104520 33 5 0.0 0.0 0.00 0.00 0.00 82 1016.0
20260507103018 33 5 0.0 0.0 0.00 0.00 0.00 82 1016.1
20260507101518 33 5 0.0 0.0 0.00 0.00 0.00 82 1016.2
20260507100022 34 5 0.0 0.0 0.00 0.00 0.00 81 1016.1
20260507094513 34 5 0.0 0.0 0.00 0.00 0.00 81 1016.3
20260507093023 35 5 0.0 0.0 0.00 0.00 0.00 81 1016.2
20260507091518 35 5 0.0 0.0 0.00 0.00 0.00 80 1016.4
20260507090011 35 5 0.0 0.0 0.00 0.00 0.00 80 1016.5
20260507084515 35 5 0.0 0.0 0.00 0.00 0.00 81 1016.5
20260507083009 35 5 0.0 0.0 0.00 0.00 0.00 81 1016.5
20260507081509 35 5 0.0 0.0 0.00 0.00 0.00 81 1016.4
20260507080008 35 5 0.0 0.0 0.00 0.00 0.00 81 1016.3
20260507074507 35 5 0.0 0.0 0.00 0.00 0.00 80 1016.3
20260507073005 36 5 0.0 0.0 0.00 0.00 0.00 80 1016.4
20260507071504 36 5 0.0 0.0 0.00 0.00 0.00 80 1016.3
20260507070008 36 5 0.0 0.0 0.00 0.00 0.00 80 1016.4
20260507064502 36 5 0.0 0.0 0.00 0.00 0.00 79 1016.7
20260507063103 36 5 0.0 0.0 0.00 0.00 0.00 79 1016.7
20260507061600 36 5 0.0 0.0 0.00 0.00 0.00 79 1016.7
20260507060103 36 5 0.0 0.0 0.00 0.00 0.00 77 1016.8
20260507054557 37 5 0.0 0.0 0.00 0.00 0.00 76 1016.8
20260507053055 37 5 0.0 0.0 0.00 0.00 0.00 76 1016.7
20260507051557 38 5 0.0 0.0 0.00 0.00 0.00 74 1016.7
20260507050051 38 5 0.0 0.0 0.00 0.00 0.00 74 1016.7
20260507044552 38 5 0.0 0.0 0.00 0.00 0.00 73 1016.6
20260507043049 39 5 0.0 0.0 0.00 0.00 0.00 72 1016.6